Location: Brahman Valley
(40.6513°N, 111.8855°W)
Time: 09:26:56
(UTC+00:00)

Tiros 1 despin weight - Pass Details

Date: 21 May 2021
Orbit: 594 x 641 km, 48.2° (Epoch: 22 June)

Event Time Altitude Azimuth Distance (km) Brightness Sun altitude
Rises 22:32:10 0° 189° (S) 2,859 ? 45.4°
Reaches altitude 10° 22:35:18 10° 167° (SSE) 1,970 ? 44.8°
Maximum altitude 22:37:53 15° 132° (SE) 1,672 ? 44.3°
Drops below altitude 10° 22:40:29 10° 97° (E) 1,995 ? 43.9°
Sets 22:43:41 0° 74° (ENE) 2,916 ? 43.3°
